User: anonymous   Login
Location: Unspecified
(0.0000°N, 0.0000°E)
Time: 22:14:30
(UTC+00:00)
Language:

SR - Orbit

View from above orbital plane
View from above orbital plane
View from above satellite
View from above satellite

Ground track
Ground track

The orbit is defined by the following mean orbital elements,

1 00046U          26130.30817022 +.00000000 +00000-0 +67337-4 0 00008
2 00046  66.6885 331.5164 0199826 320.1560  38.5020 14.54834320    08
Epoch (UTC): 10 May 2026 07:23:45
Eccentricity: 0.0199826
inclination: 66.6885°
perigee height: 568 km
apogee height: 852 km
right ascension of ascending node: 331.5164°
argument of perigee: 320.1560°
revolutions per day: 14.54834320
mean anomaly at epoch: 38.5020°

The dashed part of the orbit path shows where the satellite is in the earth's shadow,  

DLR